CDT,Max TemperatureF,Mean TemperatureF,Min TemperatureF,Max Dew PointF,MeanDew PointF,Min DewpointF,Max Humidity, Mean Humidity, Min Humidity, Max Sea Level PressureIn, Mean Sea Level PressureIn, Min Sea Level PressureIn, Max VisibilityMiles, Mean VisibilityMiles, Min VisibilityMiles, Max Wind SpeedMPH, Mean Wind SpeedMPH, Max Gust SpeedMPH,PrecipitationIn, CloudCover, Events, WindDirDegrees
2012-10-1,67,52,38,48,40,35,93,68,36,29.96,29.90,29.84,10,10,10,6,1,,0.00,0,,150
2012-10-2,73,56,38,49,44,37,94,69,36,29.94,29.90,29.85,10,10,7,10,2,,0.00,0,,32
2012-10-3,75,56,37,55,43,37,100,68,27,30.01,29.96,29.92,10,8,0,14,2,,0.00,1,,127
2012-10-4,67,55,44,50,42,29,83,60,32,30.12,30.01,29.94,10,10,10,18,9,26,0.00,2,,242
2012-10-5,52,44,35,30,25,18,76,50,28,30.14,30.09,30.05,10,10,10,20,10,24,0.00,1,,267
2012-10-6,47,40,33,26,24,22,71,51,39,30.19,30.13,30.05,10,10,10,16,8,22,0.00,8,,298
2012-10-7,52,44,36,26,17,8,64,39,17,30.19,30.14,30.07,10,10,10,13,5,17,0.00,4,,268
2012-10-8,63,50,37,28,23,14,55,36,23,30.08,29.96,29.86,10,10,10,25,12,34,0.00,2,,207
2012-10-9,63,51,40,45,36,28,90,60,36,29.89,29.83,29.76,10,10,4,21,11,28,0.11,5,,241
2012-10-10,51,42,32,35,27,19,87,59,29,30.12,30.05,29.90,10,10,10,18,10,28,0.00,2,,267
2012-10-11,63,52,41,40,28,15,61,44,28,30.31,30.08,29.98,10,10,10,21,11,31,0.00,4,,271
2012-10-12,54,38,23,30,21,10,87,52,18,30.47,30.37,30.22,10,10,10,12,5,18,0.00,0,,115
2012-10-13,63,52,42,62,50,30,96,89,53,30.21,29.91,29.73,10,6,1,14,8,17,0.67,8,,181
2012-10-14,64,55,46,64,53,42,97,92,82,29.79,29.62,29.48,10,7,0,20,7,28,1.77,8,,303
2012-10-15,60,49,37,42,38,33,97,72,41,29.95,29.90,29.79,10,10,7,13,7,17,0.00,0,,300
2012-10-16,70,54,39,51,44,38,97,61,36,29.91,29.67,29.45,10,10,5,21,7,30,0.00,2,,164
2012-10-17,68,60,52,56,50,46,94,75,49,29.46,29.38,29.28,10,9,4,18,9,26,0.50,4,,210
2012-10-18,51,48,44,47,42,39,92,84,75,29.40,29.32,29.26,10,10,3,16,10,18,0.01,8,,215
2012-10-19,51,46,41,44,42,40,95,89,75,29.66,29.52,29.39,10,9,3,10,4,,0.10,7,,332
2012-10-20,59,48,36,42,38,35,97,78,41,29.91,29.79,29.67,10,10,10,10,5,,0.00,2,,291
2012-10-21,69,52,35,48,42,35,97,72,39,30.00,29.95,29.91,10,9,3,15,3,18,0.00,0,,144
2012-10-22,61,54,48,60,54,46,97,93,75,29.96,29.92,29.88,10,5,0,14,2,18,0.60,7,,67
2012-10-23,66,61,56,64,59,55,98,96,89,29.92,29.88,29.83,10,3,0,9,6,,0.11,8,,115
2012-10-24,76,69,62,64,63,61,96,80,64,29.89,29.83,29.75,10,9,5,16,7,21,0.00,6,,174
2012-10-25,70,54,38,64,52,30,94,79,66,30.10,29.75,29.57,10,9,2,23,15,32,0.28,6,,230
2012-10-26,48,40,32,30,27,24,78,59,40,30.35,30.28,30.11,10,10,10,15,9,25,0.00,1,,306
2012-10-27,45,35,25,29,23,13,88,65,28,30.37,30.32,30.28,10,10,10,12,3,20,0.00,1,,347
2012-10-28,49,36,23,29,24,20,88,66,37,30.36,30.33,30.30,10,10,10,10,3,16,0.00,1,,23
2012-10-29,50,38,25,30,23,16,96,64,25,30.36,30.30,30.16,10,10,4,13,4,16,0.00,0,,352
2012-10-30,48,42,35,27,23,15,69,51,27,30.16,29.97,29.88,10,10,10,24,14,33,0.00,1,,346
2012-10-31,49,40,30,29,21,12,75,54,23,29.89,29.87,29.84,10,10,10,16,10,22,0.00,0,,314